Starlink 32682

operational
NORAD ID: 62196 Int'l Des: 2024-229 Owner: SPXS Country: US Constellation: starlink
LEOCIRCULAR

Starlink 32682について

説明を読み込み中...

リアルタイム位置

3D地球を読み込み中...

次回通過

高度履歴

Altitude vs Time

uPlot chart will show altitude changes over time

軌道要素

1 62196U 24229E 25304.54684019 .00008569 00000-0 32049-3 0 9993
2 62196 43.0006 247.3700 0000731 324.4981 35.5822 15.27585237 51189
Epoch: Oct 31, 2025 • Age: 8 hours

現在のステータス

高度 491.4 km
速度 7.62 km/s
衛星直下点 -32.28°S, 148.38°W
打ち上げ日 Dec 4, 2024
運用期間 0.9 years
タイプ internet

技術仕様

分類 Payload
質量 730.00 kg
乾燥質量 700.00 kg
総質量 730.00 kg
長さ 0.30 m
直径 4.10 m
スパン 29.00 m
形状 Box + pan
製造者 SPXS
バスタイプ Starlink V2M
フェーズステータス In Orbit
所有者/国 SPXS/US

大規模コンステレーション

Loading constellations...